Location: Morest
(47.6086°N, 1.4275°E)
Time: 18:49:05
(UTC+00:00)

Daily predictions for brighter satellites

Satellite Brightness Start Highest point End
(mag) Time Altitude Azimuth Time Altitude Azimuth Time Altitude Azimuth
Cosmos 2082 4.4 16:28:50 10° NNW 16:33:59 33° NE 16:39:06 10° ESE
Cosmos 1782 3.5 16:31:29 10° SSW 16:34:58 48° WNW 16:38:28 10° N
Cosmos 2297 Rocket 3.7 16:30:16 10° NW 16:35:37 44° WSW 16:40:55 10° S
Cosmos 1538 Rocket 4.3 16:31:34 10° NNW 16:36:41 46° ENE 16:41:50 10° SE
Gbstr 26 Del rocket 2.9 16:33:11 10° WSW 16:37:29 76° NNW 16:41:18 10° ENE
NOSS 3 (A) 4.2 16:35:57 10° NW 16:38:22 73° NE 16:41:31 10° SE
BREEZE-M DEB (TANK) 1.7 16:37:55 10° SW 16:39:27 35° SSE 16:41:30 10° E
Lacrosse 5 rocket 2.7 16:38:02 10° NW 16:40:45 19° N 16:43:26 10° NE
CZ-4C R/B 3.8 16:34:21 10° NW 16:41:22 59° WSW 16:49:54 10° SSE
Cosmos 1503 Rocket 4.4 16:39:27 10° SSW 16:44:38 64° WNW 16:49:48 10° NNE
USA 238 DEB 3.7 16:39:17 10° SSW 16:45:12 57° ESE 16:51:42 10° NE
USA 238 3.7 16:39:23 10° SSW 16:45:17 56° ESE 16:51:47 10° NE
CORIOLIS 4.3 16:40:51 10° SE 16:46:01 53° ENE 16:51:13 10° N
SL-16 R/B 4.0 16:45:37 10° ESE 16:46:40 10° E 16:47:43 10° E
Meteor 1-20 Rocket 4.3 16:41:14 10° NNW 16:46:43 80° W 16:52:12 10° S
Cosmos 1076 Rocket 3.8 16:47:53 10° N 16:52:05 46° ENE 16:56:14 10° SSE
Cosmos 1844 Rocket 3.9 16:47:49 10° N 16:52:05 21° NE 16:56:19 10° E
Okean 1-7 Rocket 3.6 16:47:46 10° N 16:52:10 84° W 16:56:31 10° S
USA 215 3.8 16:46:21 10° NE 16:52:33 47° NNW 16:58:45 10° W
Cosmos 1805 4.2 16:50:47 10° NNE 16:53:23 20° ENE 16:55:59 10° ESE
Cosmos 1484 Rocket 2.7 16:50:39 10° S 16:54:08 75° WSW 16:57:37 10° NNW
UNK 4.0 16:50:20 10° NNE 16:54:46 46° E 16:59:07 10° S
Cosmos 1953 Rocket 3.8 16:51:49 10° N 16:56:09 47° ENE 17:00:27 10° SSE
Cosmos 1980 Rocket 2.3 16:51:31 10° S 16:57:01 58° ESE 17:02:33 10° NE
IGS 5A 3.4 16:53:11 10° SSE 16:57:09 87° WSW 17:01:10 10° NNW
BREEZE M DEB (TANK) 1.7 16:54:51 10° WSW 16:57:29 65° SSE 16:59:08 14° ENE
Cosmos 1354 Rocket 4.3 16:52:29 10° SSW 16:57:43 71° WNW 17:02:58 10° NNE
Cosmos 1536 4.5 16:56:59 10° NE 17:00:38 - E 16:58:21 12° ENE
Cosmos 1898 Rocket 4.0 16:55:41 10° S 17:00:26 39° ESE 17:05:15 10° NE
Thor Agena Rocket 3.5 16:55:55 10° SSE 17:01:05 77° ENE 17:06:13 10° NNW
Cosmos 1825 Rocket 3.5 16:57:29 10° N 17:01:50 90° SE 17:06:08 10° S
Cosmos 2263 Rocket 2.2 16:56:28 10° NNW 17:02:11 83° ENE 17:07:53 10° SSE
Cosmos 2219 3.3 16:57:59 10° NNW 17:03:41 60° ENE 17:09:22 10° SE
BREEZE-M DEB (TANK) 4.2 16:59:32 10° SSW 17:03:53 26° SSE 17:06:01 12° E
BREEZE-M DEB (TANK) 3.4 17:02:50 10° WNW 17:05:51 76° N 17:15:04 10° E
Cosmos 990 Rocket 4.4 17:04:47 10° SSW 17:09:53 65° WNW 17:15:02 10° NNE
Cosmos 1937 Rocket 4.1 17:06:24 10° SSE 17:11:04 36° ESE 17:15:23 12° NE
Cosmos 1933 4.0 17:11:49 10° SSW 17:15:34 54° WNW 17:19:20 10° N
EXPRESS MD2 2.7 17:14:52 10° SW 17:17:13 54° SSE 17:19:11 20° E
Cosmos 923 Rocket 4.2 17:12:40 10° NNW 17:17:40 45° ENE 17:22:37 10° SE
Cosmos 2369 3.9 17:16:13 10° S 17:21:44 52° ESE 17:26:40 13° NE
Meteor 1-5 Rocket 4.3 17:16:35 10° NNW 17:22:00 81° W 17:27:34 10° S
Cosmos-2242 3.2 17:19:01 10° SSE 17:23:06 48° E 17:27:11 10° NNE
CZ-2D R/B 2.6 17:20:25 10° SSE 17:23:31 67° ENE 17:26:40 10° N
SL-16 R/B 3.1 17:18:04 10° N 17:24:09 59° WNW 17:30:12 10° SW
Meteor 1-26 Rocket 4.3 17:21:12 10° S 17:26:23 51° E 17:31:37 10° NNE
Cosmos 2227 Rocket 3.8 17:22:26 10° NW 17:27:38 39° WSW 17:32:49 10° S
Cosmos 2360 Rocket 4.0 17:27:55 10° ESE 17:28:57 12° ESE 17:28:57 12° ESE
SMAP 3.4 17:26:41 10° S 17:31:19 68° WSW 17:35:59 10° NNW
CZ-2D R/B 4.1 17:28:02 10° SE 17:31:45 33° ENE 17:35:25 10° N
NOSS 3-2 (C) 4.5 17:29:21 10° W 17:34:11 33° NNW 17:39:23 12° NNE
Landsat 7 3.9 17:29:46 10° S 17:34:25 80° WSW 17:39:06 10° NNW
SJ-12 3.6 17:30:39 10° SSE 17:34:25 89° ENE 17:38:14 10° NNW
IRS-P3 4.0 17:29:17 10° SSE 17:34:33 70° ENE 17:39:51 10° N
Cosmos 1697 Rocket 3.9 17:30:05 10° WSW 17:35:19 39° NW 17:40:35 10° NNE
Meteor 2-2 Rocket 4.2 17:30:51 10° S 17:36:22 61° E 17:41:55 10° NNE
Cosmos 2058 Rocket 3.0 17:32:33 10° S 17:37:00 74° E 17:41:29 10° NNE
SJ-6F 4.2 17:33:32 10° SSE 17:37:30 70° ENE 17:41:33 10° N
Aureole 1 Rocket 3.8 17:37:09 10° SSW 17:41:59 71° WNW 17:48:07 10° NNE
ARIANE 5 R/B 2.8 17:39:24 10° S 17:44:29 71° WSW 17:49:39 10° NNW
MINOTAUR IV R/B 4.4 17:42:13 10° NNW 17:46:39 82° ENE 17:51:02 10° SSE
SL-24 R/B - RUBIN 2 4.0 17:41:34 10° SSW 17:46:53 61° ESE 17:49:24 28° NE
GEOS 3 Rocket 3.7 17:44:10 21° NE 17:47:48 73° SE 17:53:10 10° SSW
COSMOS 2455 3.1 17:42:22 10° S 17:48:08 51° ESE 17:51:27 25° NE
Cosmos 1680 Rocket 3.5 17:43:01 10° NNW 17:48:13 60° ENE 17:53:23 10° SE
MOS 1 Rocket 3.6 17:43:53 10° S 17:48:57 80° WSW 17:54:16 10° NNW
Okean 1 2.9 17:48:05 10° S 17:51:40 86° E 17:53:56 21° N
Resurs 1-3 3.7 17:49:36 10° SE 17:53:43 46° ENE 17:57:51 10° N
USA 308 2.7 17:51:01 10° SW 17:54:09 50° SE 17:54:45 44° ESE
CENTAUR R/B 4.2 17:50:13 10° NW 17:55:44 24° N 17:59:28 18° NE
Cosmos 2333 Rocket 3.0 17:51:11 10° SSE 17:56:03 29° ESE 17:56:36 29° E
Cosmos 2322 Rocket 3.4 17:53:12 10° SSE 17:56:57 23° ESE 17:56:57 23° ESE
NOAA 6 4.3 17:54:09 10° SE 17:58:54 42° ENE 18:03:41 10° N
PSLV R/B 3.6 17:56:36 10° SE 18:00:27 45° ENE 18:04:22 10° N
SL-19 R/B 4.3 17:56:56 10° SE 18:02:17 56° ENE 18:07:58 10° N
YAOGAN 1 2.4 18:00:36 10° SSE 18:04:47 62° ENE 18:09:01 10° N
Cosmos 1844 3.6 18:07:31 10° NNW 18:13:03 60° ENE 18:15:46 29° SE
Cosmos 2285 Rocket 4.5 18:07:46 10° SSE 18:13:22 36° E 18:13:29 36° E
COSMO-SKYMED 1 2.4 18:13:54 59° ESE 18:13:54 59° ESE 18:17:57 10° S
BREEZE-M DEB (TANK) 4.4 17:52:50 10° WNW 18:18:33 86° SSW 18:21:52 33° ESE
Lacrosse 5 rocket 2.4 18:15:11 10° NW 18:17:25 27° NNW 18:17:25 27° NNW
SPOT 1/Viking Rocket 3.8 18:13:52 10° S 18:19:02 70° WSW 18:24:15 10° NNW
Radarsat Rocket 4.4 18:11:25 10° SSE 18:19:19 78° ENE 18:26:19 10° NNW
Gbstr 26 Del rocket 3.4 18:20:18 10° WNW 18:23:42 42° NNW 18:23:42 42° NNW
Meteor 1-14 Rocket 4.1 18:19:09 10° N 18:24:54 78° ENE 18:30:30 10° SSE
Cosmos 2315 Rocket 4.2 18:23:18 10° SSE 18:29:17 47° E 18:29:17 47° E
Meteor 1-11 Rocket 3.8 18:23:38 10° N 18:29:20 53° ENE 18:29:20 53° ENE
SL-16 R/B 2.1 18:24:01 10° SSW 18:29:38 69° ESE 18:30:45 55° ENE
Cosmos 1553 Rocket 4.2 18:23:34 10° SSW 18:29:44 69° W 18:36:03 10° N
Cosmos 44 Rocket 3.4 18:25:14 10° NW 18:30:25 86° SW 18:32:17 41° SSE
S3M 3.9 18:25:43 10° S 18:31:57 64° E 18:34:54 32° NNE
SKYMED 2 4.0 18:29:52 28° N 18:31:59 61° WNW 18:36:15 10° SSW
Cosmos 2227 4.2 18:27:09 10° NNW 18:32:50 82° WSW 18:38:08 12° SSE
Meteor 2-9 Rocket 3.9 18:27:47 10° N 18:33:07 71° ENE 18:38:24 10° SSE
IRAS Rocket 4.1 18:28:31 10° SSE 18:34:00 90° ENE 18:39:31 10° NNW
Cosmos 2221 3.0 18:29:54 10° S 18:32:54 46° S 18:32:54 46° S
Cosmos 1536 3.1 18:30:35 10° NNW 18:34:17 59° W 18:37:55 10° S
USA 215 3.9 18:33:11 35° NE 18:34:47 40° N 18:40:47 10° WNW
USA 238 4.5 18:30:33 10° WSW 18:36:27 41° NW 18:39:51 25° NNE
Cosmos 2237 4.5 18:30:51 10° SW 18:36:33 67° WNW 18:39:07 33° NNE
Cosmos 1844 Rocket 2.6 18:31:01 10° NNW 18:36:43 87° WSW 18:40:14 24° SSE
Cosmos 1980 Rocket 3.8 18:36:31 10° WSW 18:41:22 29° NW 18:45:02 15° N
Cosmos 1709 Rocket 3.8 18:35:19 10° N 18:41:26 71° E 18:47:32 10° SSE
NOSS 3-1 (C) 4.1 18:37:29 10° S 18:39:48 27° S 18:39:48 27° S
Meteor 2-6 Rocket 4.4 18:36:19 10° SSW 18:42:02 72° WNW 18:46:37 17° N
Cosmos 883 Rocket 4.4 18:39:19 10° S 18:45:34 65° E 18:45:59 63° ENE
Cosmos 1745 Rocket 3.9 18:40:30 10° N 18:46:41 81° W 18:52:48 10° S
Meteor 1-19 Rocket 4.2 18:41:20 10° S 18:45:54 60° SSE 18:45:54 60° SSE
Meteor 1-10 Rocket 4.3 18:46:19 10° S 18:51:06 62° SSE 18:51:06 62° SSE
Cosmos 1812 Rocket 4.4 18:49:37 10° SSW 18:52:41 44° SW 18:52:41 44° SW
Cosmos 2278 3.6 18:51:11 10° SSW 18:56:53 86° WNW 18:57:03 84° NNW
USA 59 Rocket 2.2 18:57:48 10° SSW 18:58:35 15° SSW 18:58:35 15° SSW
Cosmos 2360 Rocket 3.2 19:07:25 10° SSW 19:10:45 37° SSW 19:10:45 37° SSW
Cosmos 2219 Rocket 4.4 19:20:28 10° S 19:21:08 14° S 19:21:08 14° S
COSMOS 2455 3.9 19:28:41 10° WSW 19:34:16 38° NW 19:34:36 37° NW
BREEZE-M DEB (TANK) 4.3 19:31:05 10° WSW 19:34:51 39° WSW 19:34:51 39° WSW
Cosmos 2333 Rocket 3.3 19:34:26 10° SW 19:38:40 43° W 19:38:40 43° W
Cosmos 2322 Rocket 3.5 19:35:32 10° SW 19:38:47 35° SW 19:38:47 35° SW
CENTAUR R/B 4.2 19:41:49 10° NW 19:46:34 31° N 19:46:34 31° N
SL-16 R/B 4.3 20:09:37 10° W 20:12:38 22° WNW 20:12:38 22° WNW
